| time (UTC) | temp F | wind direction | speed knots | gust knots | rain 1hr in | rain 24hr in | rain mn in | humidity % | barometer mb |
| 20260509104548 | 40 | 0 | 0.0 | 0.0 | 0.00 | 0.00 | 0.00 | 88 | 1016.0 |
| 20260509103053 | 38 | 0 | 0.0 | 0.0 | 0.00 | 0.00 | 0.00 | 88 | 1016.0 |
| 20260509101554 | 38 | 0 | 0.0 | 0.0 | 0.00 | 0.00 | 0.00 | 87 | 1015.7 |
| 20260509100051 | 37 | 0 | 0.0 | 0.0 | 0.00 | 0.00 | 0.00 | 87 | 1015.4 |
| 20260509094545 | 37 | 0 | 0.0 | 0.0 | 0.00 | 0.00 | 0.00 | 87 | 1015.4 |
| 20260509093057 | 37 | 0 | 0.0 | 0.0 | 0.00 | 0.00 | 0.00 | 87 | 1015.2 |
| 20260509091551 | 37 | 0 | 0.0 | 0.0 | 0.00 | 0.00 | 0.00 | 86 | 1015.2 |
| 20260509090052 | 37 | 0 | 0.0 | 0.0 | 0.00 | 0.00 | 0.00 | 86 | 1015.1 |
| 20260509084550 | 38 | 0 | 0.0 | 0.9 | 0.00 | 0.00 | 0.00 | 86 | 1014.9 |
| 20260509083052 | 38 | 0 | 0.0 | 0.0 | 0.00 | 0.00 | 0.00 | 86 | 1015.0 |
| 20260509081551 | 38 | 0 | 0.0 | 0.0 | 0.00 | 0.00 | 0.00 | 85 | 1015.0 |
| 20260509080048 | 38 | 0 | 0.0 | 0.0 | 0.00 | 0.00 | 0.00 | 84 | 1015.1 |
| 20260509074559 | 38 | 0 | 0.0 | 0.0 | 0.00 | 0.00 | 0.00 | 83 | 1015.0 |
| 20260509073101 | 38 | 0 | 0.0 | 0.0 | 0.00 | 0.00 | 0.00 | 83 | 1014.7 |
| 20260509071546 | 39 | 0 | 0.0 | 0.0 | 0.00 | 0.00 | 0.00 | 82 | 1014.8 |
| 20260509070049 | 39 | 0 | 0.0 | 0.0 | 0.00 | 0.00 | 0.00 | 82 | 1014.6 |
| 20260509064558 | 40 | 0 | 0.0 | 0.0 | 0.00 | 0.00 | 0.00 | 81 | 1014.5 |
| 20260509063050 | 40 | 0 | 0.0 | 0.0 | 0.00 | 0.00 | 0.00 | 80 | 1014.7 |
| 20260509061559 | 40 | 0 | 0.0 | 0.0 | 0.00 | 0.00 | 0.00 | 79 | 1014.9 |
| 20260509060054 | 41 | 0 | 0.0 | 0.0 | 0.00 | 0.00 | 0.00 | 77 | 1014.6 |
| 20260509054541 | 41 | 0 | 0.0 | 0.0 | 0.00 | 0.00 | 0.00 | 76 | 1014.6 |
| 20260509053049 | 42 | 0 | 0.0 | 0.9 | 0.00 | 0.00 | 0.00 | 75 | 1014.7 |
| 20260509051551 | 42 | 0 | 0.0 | 0.0 | 0.00 | 0.00 | 0.00 | 74 | 1014.6 |
| 20260509050050 | 43 | 0 | 0.0 | 0.0 | 0.00 | 0.00 | 0.00 | 73 | 1014.5 |
| 20260509044550 | 44 | 0 | 0.0 | 0.0 | 0.00 | 0.00 | 0.00 | 71 | 1014.4 |
| 20260509043057 | 44 | 0 | 0.0 | 0.0 | 0.00 | 0.00 | 0.00 | 69 | 1014.4 |
| 20260509041551 | 45 | 0 | 0.0 | 0.0 | 0.00 | 0.00 | 0.00 | 68 | 1014.3 |
| 20260509040058 | 45 | 0 | 0.0 | 0.0 | 0.00 | 0.00 | 0.00 | 67 | 1014.2 |
| 20260509034554 | 46 | 0 | 0.0 | 0.9 | 0.00 | 0.00 | 0.00 | 65 | 1014.1 |
| 20260509033054 | 47 | 0 | 0.0 | 0.0 | 0.00 | 0.00 | 0.00 | 62 | 1014.0 |
| 20260509031552 | 48 | 0 | 0.0 | 0.0 | 0.00 | 0.00 | 0.00 | 60 | 1014.0 |
| 20260509030053 | 49 | 0 | 0.0 | 0.0 | 0.00 | 0.00 | 0.00 | 57 | 1013.9 |
| 20260509024546 | 50 | 0 | 0.0 | 0.0 | 0.00 | 0.00 | 0.00 | 56 | 1013.7 |
| 20260509023053 | 50 | 0 | 0.0 | 0.9 | 0.00 | 0.00 | 0.00 | 54 | 1013.8 |
| 20260509021549 | 51 | 0 | 0.0 | 0.0 | 0.00 | 0.00 | 0.00 | 53 | 1013.4 |
| 20260509020054 | 51 | 0 | 0.0 | 0.9 | 0.00 | 0.00 | 0.00 | 52 | 1013.3 |
| 20260509014548 | 51 | 0 | 0.0 | 0.0 | 0.00 | 0.00 | 0.00 | 49 | 1013.1 |
| 20260509013055 | 52 | 0 | 0.0 | 1.7 | 0.00 | 0.00 | 0.00 | 49 | 1012.9 |
| 20260509011545 | 52 | 0 | 0.0 | 1.7 | 0.00 | 0.00 | 0.00 | 48 | 1012.5 |
| 20260509010046 | 52 | 95 | 0.9 | 2.6 | 0.00 | 0.00 | 0.00 | 48 | 1012.1 |
| 20260509004610 | 53 | 0 | 0.0 | 1.7 | 0.00 | 0.00 | 0.00 | 47 | 1011.8 |
| 20260509003053 | 53 | 333 | 0.0 | 3.5 | 0.00 | 0.00 | 0.00 | 44 | 1011.5 |
| 20260509001553 | 54 | 0 | 0.0 | 1.7 | 0.00 | 0.00 | 0.00 | 44 | 1011.3 |
| 20260509000048 | 55 | 151 | 0.0 | 1.7 | 0.00 | 0.00 | 0.00 | 42 | 1011.2 |
| 20260508234550 | 55 | 329 | 0.0 | 5.2 | 0.00 | 0.00 | 0.00 | 39 | 1010.8 |
| 20260508233051 | 56 | 69 | 0.0 | 2.6 | 0.00 | 0.00 | 0.00 | 40 | 1010.5 |
| 20260508231552 | 56 | 0 | 0.0 | 2.6 | 0.00 | 0.00 | 0.00 | 39 | 1010.3 |
| 20260508230053 | 57 | 133 | 0.9 | 3.5 | 0.00 | 0.00 | 0.00 | 38 | 1010.0 |
| 20260508224553 | 58 | 0 | 0.9 | 6.1 | 0.00 | 0.00 | 0.00 | 37 | 1009.9 |
| 20260508223050 | 58 | 94 | 0.0 | 7.0 | 0.00 | 0.00 | 0.00 | 36 | 1009.8 |
| 20260508221551 | 58 | 355 | 0.9 | 6.1 | 0.00 | 0.00 | 0.00 | 35 | 1009.9 |
| 20260508220052 | 58 | 281 | 0.9 | 4.3 | 0.00 | 0.00 | 0.00 | 37 | 1009.9 |
| 20260508214601 | 59 | 154 | 1.7 | 5.2 | 0.00 | 0.00 | 0.00 | 36 | 1009.7 |
| 20260508213050 | 61 | 352 | 0.9 | 4.3 | 0.00 | 0.00 | 0.00 | 33 | 1009.5 |
| 20260508211548 | 61 | 159 | 1.7 | 6.1 | 0.00 | 0.00 | 0.00 | 33 | 1009.5 |
| 20260508210055 | 60 | 289 | 0.9 | 3.5 | 0.00 | 0.00 | 0.00 | 35 | 1009.5 |
| 20260508204550 | 60 | 178 | 0.9 | 6.1 | 0.00 | 0.00 | 0.00 | 34 | 1009.3 |
| 20260508203053 | 60 | 0 | 0.9 | 7.8 | 0.00 | 0.00 | 0.00 | 35 | 1009.3 |
| 20260508201549 | 59 | 0 | 0.9 | 5.2 | 0.00 | 0.00 | 0.00 | 36 | 1009.1 |
| 20260508200050 | 60 | 106 | 1.7 | 11.3 | 0.00 | 0.00 | 0.00 | 34 | 1009.2 |
| 20260508194547 | 60 | 256 | 1.7 | 5.2 | 0.00 | 0.00 | 0.00 | 33 | 1009.2 |
| 20260508193102 | 58 | 0 | 1.7 | 7.0 | 0.00 | 0.00 | 0.00 | 36 | 1009.2 |
| 20260508191557 | 58 | 115 | 0.9 | 6.1 | 0.00 | 0.00 | 0.00 | 36 | 1009.3 |
| 20260508190104 | 59 | 311 | 0.9 | 8.7 | 0.00 | 0.00 | 0.00 | 37 | 1009.2 |
| 20260508184559 | 60 | 309 | 1.7 | 5.2 | 0.00 | 0.00 | 0.00 | 34 | 1009.2 |
| 20260508183101 | 59 | 324 | 0.9 | 7.8 | 0.00 | 0.00 | 0.00 | 41 | 1009.3 |
| 20260508181551 | 59 | 129 | 1.7 | 9.6 | 0.00 | 0.00 | 0.00 | 37 | 1009.3 |
| 20260508180105 | 59 | 311 | 2.6 | 8.7 | 0.00 | 0.00 | 0.00 | 36 | 1009.2 |
| 20260508174608 | 59 | 229 | 1.7 | 6.1 | 0.00 | 0.00 | 0.00 | 38 | 1009.1 |
| 20260508173051 | 60 | 321 | 1.7 | 7.0 | 0.00 | 0.00 | 0.00 | 39 | 1009.2 |
| 20260508171551 | 59 | 71 | 1.7 | 6.1 | 0.00 | 0.00 | 0.00 | 35 | 1009.2 |
| 20260508170059 | 59 | 305 | 1.7 | 7.8 | 0.00 | 0.00 | 0.00 | 37 | 1009.1 |
| 20260508164553 | 58 | 113 | 0.9 | 6.1 | 0.00 | 0.00 | 0.00 | 43 | 1009.1 |
| 20260508163051 | 57 | 0 | 0.0 | 3.5 | 0.00 | 0.00 | 0.00 | 43 | 1009.2 |
| 20260508161548 | 57 | 168 | 2.6 | 7.0 | 0.00 | 0.00 | 0.00 | 38 | 1009.5 |
| 20260508160049 | 57 | 198 | 2.6 | 7.8 | 0.00 | 0.00 | 0.00 | 37 | 1009.7 |
| 20260508154553 | 57 | 143 | 1.7 | 6.1 | 0.00 | 0.00 | 0.00 | 46 | 1009.8 |
| 20260508153054 | 58 | 219 | 0.9 | 5.2 | 0.00 | 0.00 | 0.00 | 38 | 1009.8 |
| 20260508151550 | 57 | 194 | 0.9 | 6.1 | 0.00 | 0.00 | 0.00 | 37 | 1009.8 |
| 20260508150051 | 56 | 200 | 0.9 | 7.8 | 0.00 | 0.00 | 0.00 | 38 | 1009.8 |
| 20260508144552 | 55 | 290 | 0.9 | 4.3 | 0.00 | 0.00 | 0.00 | 42 | 1009.8 |
| 20260508143055 | 55 | 278 | 0.9 | 5.2 | 0.00 | 0.00 | 0.00 | 42 | 1010.0 |
| 20260508141554 | 55 | 61 | 1.7 | 8.7 | 0.00 | 0.00 | 0.00 | 39 | 1010.1 |
| 20260508140044 | 54 | 163 | 0.0 | 5.2 | 0.00 | 0.00 | 0.00 | 43 | 1010.5 |
| 20260508134551 | 54 | 142 | 1.7 | 7.8 | 0.00 | 0.00 | 0.00 | 44 | 1010.6 |
| 20260508133048 | 53 | 126 | 0.9 | 5.2 | 0.00 | 0.00 | 0.00 | 45 | 1010.3 |
| 20260508131603 | 52 | 310 | 0.9 | 6.1 | 0.00 | 0.00 | 0.00 | 47 | 1010.4 |
| 20260508130048 | 51 | 352 | 0.9 | 3.5 | 0.00 | 0.00 | 0.00 | 48 | 1010.3 |
| 20260508124551 | 50 | 245 | 0.9 | 5.2 | 0.00 | 0.00 | 0.00 | 49 | 1010.3 |
| 20260508123106 | 49 | 163 | 0.9 | 9.6 | 0.00 | 0.00 | 0.00 | 54 | 1010.6 |
| 20260508121555 | 48 | 144 | 1.7 | 5.2 | 0.00 | 0.00 | 0.00 | 56 | 1010.7 |
| 20260508120106 | 47 | 11 | 0.0 | 3.5 | 0.00 | 0.00 | 0.00 | 58 | 1010.6 |
| 20260508114558 | 45 | 0 | 0.0 | 4.3 | 0.00 | 0.00 | 0.00 | 63 | 1010.5 |
| 20260508113100 | 42 | 57 | 0.0 | 1.7 | 0.00 | 0.00 | 0.00 | 70 | 1010.6 |
| 20260508111551 | 41 | 0 | 0.0 | 0.9 | 0.00 | 0.00 | 0.00 | 76 | 1010.5 |
| 20260508110100 | 39 | 0 | 0.0 | 0.0 | 0.00 | 0.00 | 0.00 | 80 | 1010.4 |